Time,TemperatureF,DewpointF,PressureIn,WindDirection,WindDirectionDegrees,WindSpeedMPH,WindSpeedGustMPH,Humidity,HourlyPrecipIn,Conditions,Clouds,dailyrainin,SoftwareType,DateUTC
2013-03-10 00:02:00,23.2,20.4,30.29,NE,36,0.0,0.0,89,0.00,,,0.00,Wunderground PWS Mod,2013-03-10 05:02:00,
2013-03-10 00:07:00,23.2,20.7,30.28,NE,36,0.0,0.0,90,0.00,,,0.00,Wunderground PWS Mod,2013-03-10 05:07:00,
2013-03-10 00:12:00,23.0,20.5,30.28,NE,36,0.0,2.0,90,0.00,,,0.00,Wunderground PWS Mod,2013-03-10 05:12:00,
2013-03-10 00:20:00,23.2,20.7,30.28,NE,45,0.0,1.0,90,0.00,,,0.00,Wunderground PWS Mod,2013-03-10 05:20:00,
2013-03-10 00:22:00,23.2,20.7,30.28,NE,36,0.0,2.0,90,0.00,,,0.00,Wunderground PWS Mod,2013-03-10 05:22:00,
2013-03-10 00:27:00,23.2,20.7,30.28,NE,36,0.0,2.0,90,0.00,,,0.00,Wunderground PWS Mod,2013-03-10 05:27:00,
2013-03-10 00:32:00,23.2,20.4,30.28,NE,36,0.0,2.0,89,0.00,,,0.00,Wunderground PWS Mod,2013-03-10 05:32:00,
2013-03-10 00:37:00,23.2,20.7,30.28,NE,36,0.0,2.0,90,0.00,,,0.00,Wunderground PWS Mod,2013-03-10 05:37:00,
2013-03-10 00:45:00,22.5,20.0,30.28,N/A,-737280,0.0,0.0,90,0.00,,,0.00,Wunderground PWS Mod,2013-03-10 05:45:00,
2013-03-10 00:46:00,22.9,20.4,30.28,NE,36,0.0,1.0,90,0.00,,,0.00,Wunderground PWS Mod,2013-03-10 05:46:00,
2013-03-10 00:51:00,22.9,20.4,30.28,NE,36,0.0,1.0,90,0.00,,,0.00,Wunderground PWS Mod,2013-03-10 05:51:00,
2013-03-10 00:56:00,22.9,20.4,30.28,NE,36,0.0,1.0,90,0.00,,,0.00,Wunderground PWS Mod,2013-03-10 05:56:00,
2013-03-10 01:02:00,22.7,20.2,30.28,NE,36,0.0,1.0,90,0.00,,,0.00,Wunderground PWS Mod,2013-03-10 06:02:00,
2013-03-10 01:12:00,22.2,19.7,30.28,NE,36,0.0,0.0,90,0.00,,,0.00,Wunderground PWS Mod,2013-03-10 06:12:00,
2013-03-10 01:15:00,21.9,19.7,30.27,N/A,-737280,0.0,0.0,91,0.00,,,0.00,Wunderground PWS Mod,2013-03-10 06:15:00,
2013-03-10 01:22:00,22.1,19.9,30.27,NE,36,0.0,0.0,91,0.00,,,0.00,Wunderground PWS Mod,2013-03-10 06:22:00,
2013-03-10 01:32:00,21.9,19.7,30.27,NE,36,0.0,0.0,91,0.00,,,0.00,Wunderground PWS Mod,2013-03-10 06:32:00,
2013-03-10 01:40:00,21.9,19.7,30.27,N/A,-737280,0.0,0.0,91,0.00,,,0.00,Wunderground PWS Mod,2013-03-10 06:40:00,
2013-03-10 01:42:00,21.8,19.6,30.27,NE,36,0.0,0.0,91,0.00,,,0.00,Wunderground PWS Mod,2013-03-10 06:42:00,
2013-03-10 01:47:00,21.6,19.6,30.27,NE,36,0.0,0.0,92,0.00,,,0.00,Wunderground PWS Mod,2013-03-10 06:47:00,
2013-03-10 01:52:00,21.6,19.6,30.27,NE,36,0.0,0.0,92,0.00,,,0.00,Wunderground PWS Mod,2013-03-10 06:52:00,
2013-03-10 03:01:00,21.4,19.4,30.27,NE,36,0.0,0.0,92,0.00,,,0.00,Wunderground PWS Mod,2013-03-10 07:01:00,
2013-03-10 03:06:00,21.1,19.1,30.27,NE,36,0.0,0.0,92,0.00,,,0.00,Wunderground PWS Mod,2013-03-10 07:06:00,
2013-03-10 03:12:00,21.0,19.0,30.27,NE,36,0.0,0.0,92,0.00,,,0.00,Wunderground PWS Mod,2013-03-10 07:12:00,
2013-03-10 03:15:00,20.6,18.9,30.27,N/A,-737280,0.0,0.0,93,0.00,,,0.00,Wunderground PWS Mod,2013-03-10 07:15:00,
2013-03-10 03:22:00,20.8,18.8,30.27,NE,36,0.0,0.0,92,0.00,,,0.00,Wunderground PWS Mod,2013-03-10 07:22:00,
2013-03-10 03:27:00,20.6,18.9,30.27,NE,36,0.0,0.0,93,0.00,,,0.00,Wunderground PWS Mod,2013-03-10 07:27:00,
2013-03-10 03:32:00,20.6,18.9,30.27,NE,36,0.0,0.0,93,0.00,,,0.00,Wunderground PWS Mod,2013-03-10 07:32:00,
2013-03-10 03:40:00,20.6,18.9,30.27,N/A,-737280,0.0,0.0,93,0.00,,,0.00,Wunderground PWS Mod,2013-03-10 07:40:00,
2013-03-10 03:41:00,20.5,18.8,30.27,NE,36,0.0,0.0,93,0.00,,,0.00,Wunderground PWS Mod,2013-03-10 07:41:00,
2013-03-10 03:46:00,20.3,18.6,30.27,NE,36,0.0,0.0,93,0.00,,,0.00,Wunderground PWS Mod,2013-03-10 07:46:00,
2013-03-10 03:51:00,20.3,18.6,30.27,NE,36,0.0,0.0,93,0.00,,,0.00,Wunderground PWS Mod,2013-03-10 07:51:00,
2013-03-10 03:57:00,20.3,18.6,30.27,NE,36,0.0,0.0,93,0.00,,,0.00,Wunderground PWS Mod,2013-03-10 07:57:00,
2013-03-10 04:06:00,20.2,18.5,30.27,NE,36,0.0,0.0,93,0.00,,,0.00,Wunderground PWS Mod,2013-03-10 08:06:00,
2013-03-10 04:12:00,20.0,18.3,30.27,NE,36,0.0,0.0,93,0.00,,,0.00,Wunderground PWS Mod,2013-03-10 08:12:00,
2013-03-10 04:21:00,19.5,18.1,30.26,NE,36,0.0,0.0,94,0.00,,,0.00,Wunderground PWS Mod,2013-03-10 08:21:00,
2013-03-10 04:25:00,19.2,17.8,30.25,N/A,-737280,0.0,0.0,94,0.00,,,0.00,Wunderground PWS Mod,2013-03-10 08:25:00,
2013-03-10 04:27:00,19.5,18.1,30.26,NE,36,0.0,0.0,94,0.00,,,0.00,Wunderground PWS Mod,2013-03-10 08:27:00,
2013-03-10 04:32:00,19.4,18.0,30.26,NE,36,0.0,0.0,94,0.00,,,0.00,Wunderground PWS Mod,2013-03-10 08:32:00,
2013-03-10 04:37:00,19.2,17.8,30.25,NE,36,0.0,0.0,94,0.00,,,0.00,Wunderground PWS Mod,2013-03-10 08:37:00,
2013-03-10 04:42:00,19.1,17.7,30.25,NE,36,0.0,0.0,94,0.00,,,0.00,Wunderground PWS Mod,2013-03-10 08:42:00,
2013-03-10 04:45:00,18.9,17.7,30.25,N/A,-737280,0.0,0.0,95,0.00,,,0.00,Wunderground PWS Mod,2013-03-10 08:45:00,
2013-03-10 04:52:00,18.9,17.5,30.25,NE,36,0.0,0.0,94,0.00,,,0.00,Wunderground PWS Mod,2013-03-10 08:52:00,
2013-03-10 04:57:00,18.9,17.7,30.25,NE,36,0.0,0.0,95,0.00,,,0.00,Wunderground PWS Mod,2013-03-10 08:57:00,
2013-03-10 05:02:00,18.9,17.7,30.25,NE,36,0.0,0.0,95,0.00,,,0.00,Wunderground PWS Mod,2013-03-10 09:02:00,
2013-03-10 05:12:00,18.9,17.7,30.25,NE,36,0.0,2.0,95,0.00,,,0.00,Wunderground PWS Mod,2013-03-10 09:12:00,
2013-03-10 05:15:00,18.9,17.7,30.27,NE,45,0.0,3.0,95,0.00,,,0.00,Wunderground PWS Mod,2013-03-10 09:15:00,
2013-03-10 05:21:00,18.8,17.6,30.26,NE,36,1.0,1.0,95,0.00,,,0.00,Wunderground PWS Mod,2013-03-10 09:21:00,
2013-03-10 05:31:00,18.9,17.7,30.26,NE,36,0.0,0.0,95,0.00,,,0.00,Wunderground PWS Mod,2013-03-10 09:31:00,
2013-03-10 05:36:00,18.9,17.7,30.27,NE,36,0.0,0.0,95,0.00,,,0.00,Wunderground PWS Mod,2013-03-10 09:36:00,
2013-03-10 05:42:00,18.9,17.7,30.27,NE,36,0.0,3.0,95,0.00,,,0.00,Wunderground PWS Mod,2013-03-10 09:42:00,
2013-03-10 05:51:00,18.8,17.6,30.27,NE,36,0.0,3.0,95,0.00,,,0.00,Wunderground PWS Mod,2013-03-10 09:51:00,
2013-03-10 05:55:00,18.6,17.4,30.27,N/A,-737280,0.0,0.0,95,0.00,,,0.00,Wunderground PWS Mod,2013-03-10 09:55:00,
2013-03-10 05:56:00,18.8,17.6,30.27,NE,36,0.0,3.0,95,0.00,,,0.00,Wunderground PWS Mod,2013-03-10 09:56:00,
2013-03-10 06:01:00,18.8,17.6,30.27,NE,36,0.0,3.0,95,0.00,,,0.00,Wunderground PWS Mod,2013-03-10 10:01:00,
2013-03-10 06:07:00,18.6,17.4,30.27,NE,36,0.0,3.0,95,0.00,,,0.00,Wunderground PWS Mod,2013-03-10 10:07:00,
2013-03-10 06:12:00,18.6,17.4,30.27,NE,36,0.0,0.0,95,0.00,,,0.00,Wunderground PWS Mod,2013-03-10 10:12:00,
2013-03-10 06:20:00,18.6,17.4,30.29,NE,45,0.0,2.0,95,0.00,,,0.00,Wunderground PWS Mod,2013-03-10 10:20:00,
2013-03-10 06:22:00,18.4,17.2,30.29,NE,36,0.0,0.0,95,0.00,,,0.00,Wunderground PWS Mod,2013-03-10 10:22:00,
2013-03-10 06:27:00,18.4,17.2,30.29,NE,36,0.0,0.0,95,0.00,,,0.00,Wunderground PWS Mod,2013-03-10 10:27:00,
2013-03-10 06:32:00,18.6,17.7,30.29,NE,36,0.0,1.0,96,0.00,,,0.00,Wunderground PWS Mod,2013-03-10 10:32:00,
2013-03-10 06:42:00,18.3,17.1,30.29,NE,36,1.0,2.0,95,0.00,,,0.00,Wunderground PWS Mod,2013-03-10 10:42:00,
2013-03-10 06:45:00,18.3,17.1,30.30,NE,45,0.0,2.0,95,0.00,,,0.00,Wunderground PWS Mod,2013-03-10 10:45:00,
2013-03-10 06:51:00,18.4,17.2,30.29,NE,36,0.0,2.0,95,0.00,,,0.00,Wunderground PWS Mod,2013-03-10 10:51:00,
2013-03-10 06:56:00,18.4,17.2,30.29,NE,36,0.0,2.0,95,0.00,,,0.00,Wunderground PWS Mod,2013-03-10 10:56:00,
2013-03-10 07:01:00,18.3,17.1,30.29,NE,36,0.0,2.0,95,0.00,,,0.00,Wunderground PWS Mod,2013-03-10 11:01:00,
2013-03-10 07:06:00,18.3,17.1,30.30,NE,36,0.0,2.0,95,0.00,,,0.00,Wunderground PWS Mod,2013-03-10 11:06:00,
2013-03-10 07:12:00,18.1,16.9,30.30,NE,36,0.0,2.0,95,0.00,,,0.00,Wunderground PWS Mod,2013-03-10 11:12:00,
2013-03-10 07:15:00,18.0,16.8,30.31,NE,45,0.0,2.0,95,0.00,,,0.00,Wunderground PWS Mod,2013-03-10 11:15:00,
2013-03-10 07:21:00,18.1,16.9,30.31,NE,36,0.0,2.0,95,0.00,,,0.00,Wunderground PWS Mod,2013-03-10 11:21:00,
2013-03-10 07:26:00,18.1,16.9,30.31,NE,36,0.0,2.0,95,0.00,,,0.00,Wunderground PWS Mod,2013-03-10 11:26:00,
2013-03-10 07:32:00,18.0,16.8,30.31,NE,36,0.0,2.0,95,0.00,,,0.00,Wunderground PWS Mod,2013-03-10 11:32:00,
2013-03-10 07:37:00,18.0,16.8,30.31,NE,36,0.0,2.0,95,0.00,,,0.00,Wunderground PWS Mod,2013-03-10 11:37:00,
2013-03-10 07:42:00,18.1,16.9,30.31,NE,36,0.0,2.0,95,0.00,,,0.00,Wunderground PWS Mod,2013-03-10 11:42:00,
2013-03-10 07:50:00,18.3,17.1,30.31,NE,45,1.0,3.0,95,0.00,,,0.00,Wunderground PWS Mod,2013-03-10 11:50:00,
2013-03-10 07:51:00,18.3,17.1,30.31,NE,36,0.0,2.0,95,0.00,,,0.00,Wunderground PWS Mod,2013-03-10 11:51:00,
2013-03-10 07:57:00,18.4,17.2,30.31,NE,36,1.0,2.0,95,0.00,,,0.00,Wunderground PWS Mod,2013-03-10 11:57:00,
2013-03-10 08:06:00,18.3,17.1,30.31,NE,36,2.0,2.0,95,0.00,,,0.00,Wunderground PWS Mod,2013-03-10 12:06:00,
2013-03-10 08:12:00,18.6,17.4,30.31,NE,36,2.0,3.0,95,0.00,,,0.00,Wunderground PWS Mod,2013-03-10 12:12:00,
2013-03-10 08:21:00,19.2,18.0,30.31,NE,36,0.0,3.0,95,0.00,,,0.00,Wunderground PWS Mod,2013-03-10 12:21:00,
2013-03-10 08:25:00,19.9,18.7,30.31,NE,45,0.0,4.0,95,0.00,,,0.00,Wunderground PWS Mod,2013-03-10 12:25:00,
2013-03-10 08:31:00,19.7,18.5,30.31,NE,36,0.0,3.0,95,0.00,,,0.00,Wunderground PWS Mod,2013-03-10 12:31:00,
2013-03-10 08:36:00,19.9,18.7,30.31,NE,36,0.0,3.0,95,0.00,,,0.00,Wunderground PWS Mod,2013-03-10 12:36:00,
2013-03-10 08:40:00,19.9,18.7,30.31,NE,45,0.0,4.0,95,0.00,,,0.00,Wunderground PWS Mod,2013-03-10 12:40:00,
2013-03-10 08:42:00,20.3,19.1,30.31,NE,36,0.0,4.0,95,0.00,,,0.00,Wunderground PWS Mod,2013-03-10 12:42:00,
2013-03-10 08:47:00,21.0,19.8,30.31,NE,36,0.0,4.0,95,0.00,,,0.00,Wunderground PWS Mod,2013-03-10 12:47:00,
2013-03-10 08:56:00,22.2,20.7,30.30,NE,36,0.0,4.0,94,0.00,,,0.00,Wunderground PWS Mod,2013-03-10 12:56:00,
2013-03-10 09:01:00,22.9,21.2,30.30,NE,36,0.0,4.0,93,0.00,,,0.00,Wunderground PWS Mod,2013-03-10 13:01:00,
2013-03-10 09:06:00,23.6,21.9,30.30,NE,36,0.0,4.0,93,0.00,,,0.00,Wunderground PWS Mod,2013-03-10 13:06:00,
2013-03-10 09:12:00,24.5,22.2,30.30,NE,36,0.0,3.0,91,0.00,,,0.00,Wunderground PWS Mod,2013-03-10 13:12:00,
2013-03-10 09:15:00,27.9,23.4,30.28,N/A,-737280,0.0,0.0,83,0.00,,,0.00,Wunderground PWS Mod,2013-03-10 13:15:00,
2013-03-10 09:22:00,25.8,22.7,30.29,NE,36,0.0,3.0,88,0.00,,,0.00,Wunderground PWS Mod,2013-03-10 13:22:00,
2013-03-10 09:32:00,27.5,23.3,30.29,NE,36,0.0,3.0,84,0.00,,,0.00,Wunderground PWS Mod,2013-03-10 13:32:00,
2013-03-10 09:40:00,27.9,23.4,30.28,N/A,-737280,0.0,0.0,83,0.00,,,0.00,Wunderground PWS Mod,2013-03-10 13:40:00,
2013-03-10 09:42:00,28.4,23.0,30.29,NE,36,0.0,0.0,80,0.00,,,0.00,Wunderground PWS Mod,2013-03-10 13:42:00,
2013-03-10 09:47:00,28.8,23.1,30.29,NE,36,0.0,0.0,79,0.00,,,0.00,Wunderground PWS Mod,2013-03-10 13:47:00,
2013-03-10 09:56:00,30.6,24.6,30.28,NE,36,0.0,0.0,78,0.00,,,0.00,Wunderground PWS Mod,2013-03-10 13:56:00,
2013-03-10 10:01:00,31.5,24.2,30.28,NE,36,0.0,0.0,74,0.00,,,0.00,Wunderground PWS Mod,2013-03-10 14:01:00,
2013-03-10 10:06:00,32.4,24.0,30.27,NE,36,0.0,0.0,71,0.00,,,0.00,Wunderground PWS Mod,2013-03-10 14:06:00,
2013-03-10 10:12:00,33.2,24.8,30.27,NE,36,0.0,0.0,71,0.00,,,0.00,Wunderground PWS Mod,2013-03-10 14:12:00,
2013-03-10 10:20:00,36.5,25.1,30.26,NE,45,0.0,1.0,63,0.00,,,0.00,Wunderground PWS Mod,2013-03-10 14:20:00,
2013-03-10 10:22:00,34.9,25.4,30.26,NE,36,0.0,0.0,68,0.00,,,0.00,Wunderground PWS Mod,2013-03-10 14:22:00,
2013-03-10 10:27:00,35.3,25.4,30.26,NE,36,0.0,0.0,67,0.00,,,0.00,Wunderground PWS Mod,2013-03-10 14:27:00,
2013-03-10 10:36:00,36.5,25.1,30.26,NE,36,0.0,0.0,63,0.00,,,0.00,Wunderground PWS Mod,2013-03-10 14:36:00,
2013-03-10 10:40:00,36.5,25.1,30.26,NE,45,0.0,1.0,63,0.00,,,0.00,Wunderground PWS Mod,2013-03-10 14:40:00,
2013-03-10 10:42:00,37.5,25.3,30.26,NE,36,0.0,1.0,61,0.00,,,0.00,Wunderground PWS Mod,2013-03-10 14:42:00,
2013-03-10 10:47:00,38.2,25.1,30.26,NE,36,0.0,1.0,59,0.00,,,0.00,Wunderground PWS Mod,2013-03-10 14:47:00,
2013-03-10 10:52:00,38.9,25.4,30.25,NE,36,0.0,1.0,58,0.00,,,0.00,Wunderground PWS Mod,2013-03-10 14:52:00,
2013-03-10 11:01:00,41.3,25.0,30.25,NE,36,0.0,1.0,52,0.00,,,0.00,Wunderground PWS Mod,2013-03-10 15:01:00,
2013-03-10 11:06:00,42.6,25.7,30.24,West,268,0.0,1.0,51,0.00,,,0.00,Wunderground PWS Mod,2013-03-10 15:06:00,
2013-03-10 11:12:00,43.2,25.3,30.24,West,259,0.0,4.0,49,0.00,,,0.00,Wunderground PWS Mod,2013-03-10 15:12:00,
2013-03-10 11:15:00,43.9,24.9,30.22,WSW,248,2.0,11.0,47,0.00,,,0.00,Wunderground PWS Mod,2013-03-10 15:15:00,
2013-03-10 11:22:00,43.5,25.1,30.23,West,271,3.0,3.0,48,0.00,,,0.00,Wunderground PWS Mod,2013-03-10 15:22:00,
2013-03-10 11:27:00,43.5,26.1,30.23,SSE,167,2.0,2.0,50,0.00,,,0.00,Wunderground PWS Mod,2013-03-10 15:27:00,
2013-03-10 11:32:00,43.6,24.7,30.23,WSW,242,2.0,2.0,47,0.00,,,0.00,Wunderground PWS Mod,2013-03-10 15:32:00,
2013-03-10 11:37:00,43.9,24.9,30.22,WSW,240,2.0,3.0,47,0.00,,,0.00,Wunderground PWS Mod,2013-03-10 15:37:00,
2013-03-10 11:42:00,43.6,25.2,30.22,West,275,2.0,11.0,48,0.00,,,0.00,Wunderground PWS Mod,2013-03-10 15:42:00,
2013-03-10 11:50:00,46.2,24.3,30.20,WSW,248,1.0,9.0,42,0.00,,,0.00,Wunderground PWS Mod,2013-03-10 15:50:00,
2013-03-10 11:51:00,44.9,24.3,30.22,SSE,167,0.0,11.0,44,0.00,,,0.00,Wunderground PWS Mod,2013-03-10 15:51:00,
2013-03-10 11:57:00,45.7,25.5,30.22,SSE,163,1.0,11.0,45,0.00,,,0.00,Wunderground PWS Mod,2013-03-10 15:57:00,
2013-03-10 12:02:00,46.0,24.7,30.22,SSE,157,1.0,11.0,43,0.00,,,0.00,Wunderground PWS Mod,2013-03-10 16:02:00,
2013-03-10 12:12:00,45.8,25.1,30.20,West,275,3.0,9.0,44,0.00,,,0.00,Wunderground PWS Mod,2013-03-10 16:12:00,
2013-03-10 12:15:00,46.1,24.8,30.21,WSW,248,2.0,11.0,43,0.00,,,0.00,Wunderground PWS Mod,2013-03-10 16:15:00,
2013-03-10 12:22:00,46.7,25.4,30.20,WSW,246,1.0,9.0,43,0.00,,,0.00,Wunderground PWS Mod,2013-03-10 16:22:00,
2013-03-10 12:31:00,46.5,24.6,30.20,WSW,249,2.0,9.0,42,0.00,,,0.00,Wunderground PWS Mod,2013-03-10 16:31:00,
2013-03-10 12:36:00,46.1,24.8,30.21,WSW,243,1.0,9.0,43,0.00,,,0.00,Wunderground PWS Mod,2013-03-10 16:36:00,
2013-03-10 12:42:00,46.7,25.9,30.21,West,262,1.0,11.0,44,0.00,,,0.00,Wunderground PWS Mod,2013-03-10 16:42:00,
2013-03-10 12:51:00,46.7,26.5,30.20,ESE,117,1.0,11.0,45,0.00,,,0.00,Wunderground PWS Mod,2013-03-10 16:51:00,
2013-03-10 12:55:00,48.2,25.6,30.19,WSW,248,1.0,6.0,41,0.00,,,0.00,Wunderground PWS Mod,2013-03-10 16:55:00,
2013-03-10 12:56:00,46.8,26.0,30.20,WSW,257,0.0,11.0,44,0.00,,,0.00,Wunderground PWS Mod,2013-03-10 16:56:00,
2013-03-10 13:01:00,47.6,26.2,30.20,WSW,241,0.0,11.0,43,0.00,,,0.00,Wunderground PWS Mod,2013-03-10 17:01:00,
2013-03-10 13:12:00,48.9,24.4,30.19,ENE,67,2.0,6.0,38,0.00,,,0.00,Wunderground PWS Mod,2013-03-10 17:12:00,
2013-03-10 13:20:00,50.1,24.8,30.17,WSW,248,3.0,10.0,37,0.00,,,0.00,Wunderground PWS Mod,2013-03-10 17:20:00,
2013-03-10 13:21:00,49.9,27.1,30.18,West,274,2.0,6.0,41,0.00,,,0.00,Wunderground PWS Mod,2013-03-10 17:21:00,
2013-03-10 13:27:00,50.4,24.4,30.18,WSW,238,2.0,6.0,36,0.00,,,0.00,Wunderground PWS Mod,2013-03-10 17:27:00,
2013-03-10 13:32:00,50.2,24.2,30.18,WSW,244,4.0,6.0,36,0.00,,,0.00,Wunderground PWS Mod,2013-03-10 17:32:00,
2013-03-10 13:37:00,50.1,24.8,30.17,West,278,3.0,6.0,37,0.00,,,0.00,Wunderground PWS Mod,2013-03-10 17:37:00,
2013-03-10 13:42:00,50.4,24.4,30.17,West,260,2.0,10.0,36,0.00,,,0.00,Wunderground PWS Mod,2013-03-10 17:42:00,
2013-03-10 13:45:00,50.1,25.5,30.17,WSW,248,3.0,13.0,38,0.00,,,0.00,Wunderground PWS Mod,2013-03-10 17:45:00,
2013-03-10 13:52:00,50.2,22.9,30.17,SSW,213,4.0,10.0,34,0.00,,,0.00,Wunderground PWS Mod,2013-03-10 17:52:00,
2013-03-10 13:57:00,50.2,23.6,30.17,SSW,211,4.0,10.0,35,0.00,,,0.00,Wunderground PWS Mod,2013-03-10 17:57:00,
2013-03-10 14:07:00,50.1,25.5,30.17,WSW,256,1.0,10.0,38,0.00,,,0.00,Wunderground PWS Mod,2013-03-10 18:07:00,
2013-03-10 14:12:00,50.4,24.4,30.17,WSW,246,1.0,13.0,36,0.00,,,0.00,Wunderground PWS Mod,2013-03-10 18:12:00,
2013-03-10 14:20:00,51.7,22.8,30.15,WSW,248,2.0,12.0,32,0.00,,,0.00,Wunderground PWS Mod,2013-03-10 18:20:00,
2013-03-10 14:21:00,50.8,24.1,30.16,WSW,242,2.0,13.0,35,0.00,,,0.00,Wunderground PWS Mod,2013-03-10 18:21:00,
2013-03-10 14:27:00,51.1,21.5,30.16,SW,222,3.0,13.0,31,0.00,,,0.00,Wunderground PWS Mod,2013-03-10 18:27:00,
2013-03-10 14:32:00,51.6,22.7,30.16,SSE,154,2.0,13.0,32,0.00,,,0.00,Wunderground PWS Mod,2013-03-10 18:32:00,
2013-03-10 14:37:00,51.7,22.8,30.15,SSE,148,1.0,13.0,32,0.00,,,0.00,Wunderground PWS Mod,2013-03-10 18:37:00,
2013-03-10 14:42:00,51.9,22.2,30.15,SW,236,0.0,12.0,31,0.00,,,0.00,Wunderground PWS Mod,2013-03-10 18:42:00,
2013-03-10 14:45:00,52.2,22.4,30.14,ENE,68,0.0,5.0,31,0.00,,,0.00,Wunderground PWS Mod,2013-03-10 18:45:00,
2013-03-10 14:51:00,51.4,22.5,30.15,NNE,30,0.0,12.0,32,0.00,,,0.00,Wunderground PWS Mod,2013-03-10 18:51:00,
2013-03-10 14:56:00,51.6,21.9,30.15,WSW,240,0.0,12.0,31,0.00,,,0.00,Wunderground PWS Mod,2013-03-10 18:56:00,
2013-03-10 15:02:00,52.0,22.3,30.15,WSW,242,0.0,12.0,31,0.00,,,0.00,Wunderground PWS Mod,2013-03-10 19:02:00,
2013-03-10 15:07:00,52.2,22.4,30.14,ESE,102,0.0,12.0,31,0.00,,,0.00,Wunderground PWS Mod,2013-03-10 19:07:00,
2013-03-10 15:12:00,52.6,22.8,30.14,NNE,32,1.0,5.0,31,0.00,,,0.00,Wunderground PWS Mod,2013-03-10 19:12:00,
2013-03-10 15:15:00,54.2,23.4,30.14,West,270,2.0,7.0,30,0.00,,,0.00,Wunderground PWS Mod,2013-03-10 19:15:00,
2013-03-10 15:22:00,53.2,22.5,30.14,South,175,2.0,5.0,30,0.00,,,0.00,Wunderground PWS Mod,2013-03-10 19:22:00,
2013-03-10 15:27:00,53.8,22.2,30.14,West,265,2.0,5.0,29,0.00,,,0.00,Wunderground PWS Mod,2013-03-10 19:27:00,
2013-03-10 15:37:00,54.2,23.4,30.14,NW,313,1.0,5.0,30,0.00,,,0.00,Wunderground PWS Mod,2013-03-10 19:37:00,
2013-03-10 15:42:00,54.1,21.7,30.14,NNE,22,0.0,7.0,28,0.00,,,0.00,Wunderground PWS Mod,2013-03-10 19:42:00,
2013-03-10 15:45:00,53.2,24.8,30.12,WSW,248,1.0,7.0,33,0.00,,,0.00,Wunderground PWS Mod,2013-03-10 19:45:00,
2013-03-10 15:52:00,54.1,22.5,30.13,South,173,1.0,7.0,29,0.00,,,0.00,Wunderground PWS Mod,2013-03-10 19:52:00,
2013-03-10 15:57:00,53.8,23.1,30.13,WSW,240,1.0,7.0,30,0.00,,,0.00,Wunderground PWS Mod,2013-03-10 19:57:00,
2013-03-10 16:02:00,53.5,25.1,30.13,West,265,2.0,7.0,33,0.00,,,0.00,Wunderground PWS Mod,2013-03-10 20:02:00,
2013-03-10 16:12:00,52.3,22.5,30.12,WSW,253,0.0,7.0,31,0.00,,,0.00,Wunderground PWS Mod,2013-03-10 20:12:00,
2013-03-10 16:15:00,52.0,22.3,30.12,ENE,68,0.0,4.0,31,0.00,,,0.00,Wunderground PWS Mod,2013-03-10 20:15:00,
2013-03-10 16:22:00,52.2,22.4,30.13,ENE,78,0.0,7.0,31,0.00,,,0.00,Wunderground PWS Mod,2013-03-10 20:22:00,
2013-03-10 16:27:00,52.2,20.9,30.13,SE,143,1.0,7.0,29,0.00,,,0.00,Wunderground PWS Mod,2013-03-10 20:27:00,
2013-03-10 16:37:00,52.0,22.3,30.12,ENE,77,1.0,7.0,31,0.00,,,0.00,Wunderground PWS Mod,2013-03-10 20:37:00,
2013-03-10 16:45:00,51.0,24.3,30.10,ESE,113,1.0,8.0,35,0.00,,,0.00,Wunderground PWS Mod,2013-03-10 20:45:00,
2013-03-10 16:47:00,52.0,21.5,30.12,NNW,345,2.0,4.0,30,0.00,,,0.00,Wunderground PWS Mod,2013-03-10 20:47:00,
2013-03-10 16:52:00,51.7,22.8,30.11,NE,38,1.0,4.0,32,0.00,,,0.00,Wunderground PWS Mod,2013-03-10 20:52:00,
2013-03-10 16:57:00,51.4,21.7,30.11,SE,126,1.0,4.0,31,0.00,,,0.00,Wunderground PWS Mod,2013-03-10 20:57:00,
2013-03-10 17:07:00,50.8,24.1,30.10,WNW,296,2.0,4.0,35,0.00,,,0.00,Wunderground PWS Mod,2013-03-10 21:07:00,
2013-03-10 17:12:00,50.7,24.7,30.10,NW,326,1.0,8.0,36,0.00,,,0.00,Wunderground PWS Mod,2013-03-10 21:12:00,
2013-03-10 17:15:00,50.4,23.7,30.10,WNW,293,2.0,10.0,35,0.00,,,0.00,Wunderground PWS Mod,2013-03-10 21:15:00,
2013-03-10 17:22:00,50.2,22.9,30.10,SW,229,2.0,8.0,34,0.00,,,0.00,Wunderground PWS Mod,2013-03-10 21:22:00,
2013-03-10 17:32:00,50.4,23.7,30.10,ENE,69,1.0,8.0,35,0.00,,,0.00,Wunderground PWS Mod,2013-03-10 21:32:00,
2013-03-10 17:37:00,50.4,23.7,30.10,East,101,1.0,8.0,35,0.00,,,0.00,Wunderground PWS Mod,2013-03-10 21:37:00,
2013-03-10 17:42:00,49.9,24.0,30.10,SW,226,1.0,10.0,36,0.00,,,0.00,Wunderground PWS Mod,2013-03-10 21:42:00,
2013-03-10 17:45:00,48.6,25.9,30.10,SW,225,1.0,12.0,41,0.00,,,0.00,Wunderground PWS Mod,2013-03-10 21:45:00,
2013-03-10 17:52:00,49.6,25.0,30.11,WSW,241,3.0,10.0,38,0.00,,,0.00,Wunderground PWS Mod,2013-03-10 21:52:00,
2013-03-10 18:02:00,49.1,25.2,30.11,NNE,31,0.0,10.0,39,0.00,,,0.00,Wunderground PWS Mod,2013-03-10 22:02:00,
2013-03-10 18:07:00,48.6,25.9,30.10,SW,221,0.0,10.0,41,0.00,,,0.00,Wunderground PWS Mod,2013-03-10 22:07:00,
2013-03-10 18:12:00,48.3,26.8,30.10,SW,221,0.0,12.0,43,0.00,,,0.00,Wunderground PWS Mod,2013-03-10 22:12:00,
2013-03-10 18:15:00,47.6,27.8,30.11,West,270,0.0,5.0,46,0.00,,,0.00,Wunderground PWS Mod,2013-03-10 22:15:00,
2013-03-10 18:22:00,48.3,25.7,30.11,NW,304,0.0,12.0,41,0.00,,,0.00,Wunderground PWS Mod,2013-03-10 22:22:00,
2013-03-10 18:27:00,48.0,26.0,30.11,WNW,298,0.0,12.0,42,0.00,,,0.00,Wunderground PWS Mod,2013-03-10 22:27:00,
2013-03-10 18:36:00,47.6,27.8,30.11,WSW,256,1.0,12.0,46,0.00,,,0.00,Wunderground PWS Mod,2013-03-10 22:36:00,
2013-03-10 18:40:00,47.6,27.8,30.11,West,270,0.0,5.0,46,0.00,,,0.00,Wunderground PWS Mod,2013-03-10 22:40:00,
2013-03-10 18:42:00,47.0,26.7,30.11,NNW,343,1.0,5.0,45,0.00,,,0.00,Wunderground PWS Mod,2013-03-10 22:42:00,
2013-03-10 18:47:00,47.0,26.7,30.11,SSW,197,1.0,5.0,45,0.00,,,0.00,Wunderground PWS Mod,2013-03-10 22:47:00,
2013-03-10 18:52:00,46.4,27.2,30.11,SSW,197,0.0,5.0,47,0.00,,,0.00,Wunderground PWS Mod,2013-03-10 22:52:00,
2013-03-10 18:57:00,46.2,26.0,30.11,SE,126,0.0,5.0,45,0.00,,,0.00,Wunderground PWS Mod,2013-03-10 22:57:00,
2013-03-10 19:07:00,46.4,25.6,30.11,West,261,1.0,5.0,44,0.00,,,0.00,Wunderground PWS Mod,2013-03-10 23:07:00,
2013-03-10 19:12:00,46.4,26.7,30.11,ESE,122,1.0,8.0,46,0.00,,,0.00,Wunderground PWS Mod,2013-03-10 23:12:00,
2013-03-10 19:15:00,46.2,27.1,30.13,WSW,248,1.0,9.0,47,0.00,,,0.00,Wunderground PWS Mod,2013-03-10 23:15:00,
2013-03-10 19:22:00,46.2,25.5,30.11,WSW,237,1.0,8.0,44,0.00,,,0.00,Wunderground PWS Mod,2013-03-10 23:22:00,
2013-03-10 19:27:00,46.4,26.2,30.11,SSE,165,1.0,8.0,45,0.00,,,0.00,Wunderground PWS Mod,2013-03-10 23:27:00,
2013-03-10 19:37:00,46.2,27.1,30.13,East,95,1.0,8.0,47,0.00,,,0.00,Wunderground PWS Mod,2013-03-10 23:37:00,
2013-03-10 19:42:00,46.1,27.0,30.13,SSW,207,1.0,9.0,47,0.00,,,0.00,Wunderground PWS Mod,2013-03-10 23:42:00,
2013-03-10 19:45:00,46.2,26.5,30.12,ENE,68,1.0,7.0,46,0.00,,,0.00,Wunderground PWS Mod,2013-03-10 23:45:00,
2013-03-10 19:52:00,46.2,26.0,30.13,East,101,1.0,9.0,45,0.00,,,0.00,Wunderground PWS Mod,2013-03-10 23:52:00,
2013-03-10 19:57:00,46.0,26.4,30.13,SSW,203,1.0,9.0,46,0.00,,,0.00,Wunderground PWS Mod,2013-03-10 23:57:00,
2013-03-10 20:02:00,46.2,26.0,30.13,East,80,1.0,9.0,45,0.00,,,0.00,Wunderground PWS Mod,2013-03-11 00:02:00,
2013-03-10 20:07:00,46.2,26.0,30.12,ESE,122,1.0,9.0,45,0.00,,,0.00,Wunderground PWS Mod,2013-03-11 00:07:00,
2013-03-10 20:12:00,46.0,26.9,30.12,NW,305,1.0,7.0,47,0.00,,,0.00,Wunderground PWS Mod,2013-03-11 00:12:00,
2013-03-10 20:15:00,45.7,26.6,30.10,SSE,158,1.0,9.0,47,0.00,,,0.00,Wunderground PWS Mod,2013-03-11 00:15:00,
2013-03-10 20:21:00,45.8,25.6,30.11,SSW,202,1.0,7.0,45,0.00,,,0.00,Wunderground PWS Mod,2013-03-11 00:21:00,
2013-03-10 20:26:00,45.7,26.6,30.11,WSW,249,1.0,7.0,47,0.00,,,0.00,Wunderground PWS Mod,2013-03-11 00:26:00,
2013-03-10 20:32:00,45.7,26.1,30.11,NNE,29,1.0,7.0,46,0.00,,,0.00,Wunderground PWS Mod,2013-03-11 00:32:00,
2013-03-10 20:37:00,45.7,27.6,30.10,WSW,257,1.0,7.0,49,0.00,,,0.00,Wunderground PWS Mod,2013-03-11 00:37:00,
2013-03-10 20:42:00,44.3,27.3,30.10,South,181,1.0,9.0,51,0.00,,,0.00,Wunderground PWS Mod,2013-03-11 00:42:00,
2013-03-10 20:50:00,42.2,26.7,30.11,SW,225,0.0,4.0,54,0.00,,,0.00,Wunderground PWS Mod,2013-03-11 00:50:00,
2013-03-10 20:51:00,43.6,27.1,30.11,SW,228,0.0,9.0,52,0.00,,,0.00,Wunderground PWS Mod,2013-03-11 00:51:00,
2013-03-10 20:57:00,43.1,27.6,30.11,SW,228,0.0,9.0,54,0.00,,,0.00,Wunderground PWS Mod,2013-03-11 00:57:00,
2013-03-10 21:02:00,42.6,27.5,30.11,SW,230,0.0,9.0,55,0.00,,,0.00,Wunderground PWS Mod,2013-03-11 01:02:00,
2013-03-10 21:12:00,41.9,26.9,30.11,WSW,252,0.0,4.0,55,0.00,,,0.00,Wunderground PWS Mod,2013-03-11 01:12:00,
2013-03-10 21:15:00,41.6,27.5,30.12,South,180,0.0,5.0,57,0.00,,,0.00,Wunderground PWS Mod,2013-03-11 01:15:00,
2013-03-10 21:22:00,41.6,27.1,30.11,ESE,116,0.0,4.0,56,0.00,,,0.00,Wunderground PWS Mod,2013-03-11 01:22:00,
2013-03-10 21:31:00,41.6,27.1,30.11,ENE,67,0.0,4.0,56,0.00,,,0.00,Wunderground PWS Mod,2013-03-11 01:31:00,
2013-03-10 21:37:00,41.6,27.9,30.12,ENE,67,0.0,4.0,58,0.00,,,0.00,Wunderground PWS Mod,2013-03-11 01:37:00,
2013-03-10 21:40:00,41.6,27.5,30.12,South,180,0.0,5.0,57,0.00,,,0.00,Wunderground PWS Mod,2013-03-11 01:40:00,
2013-03-10 21:42:00,41.3,28.0,30.12,ESE,103,0.0,5.0,59,0.00,,,0.00,Wunderground PWS Mod,2013-03-11 01:42:00,
2013-03-10 21:51:00,42.5,28.3,30.11,ENE,76,1.0,5.0,57,0.00,,,0.00,Wunderground PWS Mod,2013-03-11 01:51:00,
2013-03-10 21:57:00,42.1,28.4,30.11,SW,227,1.0,5.0,58,0.00,,,0.00,Wunderground PWS Mod,2013-03-11 01:57:00,
2013-03-10 22:02:00,41.1,28.7,30.11,SW,227,1.0,5.0,61,0.00,,,0.00,Wunderground PWS Mod,2013-03-11 02:02:00,
2013-03-10 22:07:00,40.6,28.2,30.12,ENE,78,0.0,5.0,61,0.00,,,0.00,Wunderground PWS Mod,2013-03-11 02:07:00,
2013-03-10 22:12:00,40.6,27.8,30.12,NE,42,1.0,9.0,60,0.00,,,0.00,Wunderground PWS Mod,2013-03-11 02:12:00,
2013-03-10 22:20:00,42.1,27.9,30.10,SE,135,1.0,6.0,57,0.00,,,0.00,Wunderground PWS Mod,2013-03-11 02:20:00,
2013-03-10 22:22:00,41.1,27.9,30.11,ESE,111,1.0,9.0,59,0.00,,,0.00,Wunderground PWS Mod,2013-03-11 02:22:00,
2013-03-10 22:27:00,41.5,27.8,30.11,South,182,1.0,9.0,58,0.00,,,0.00,Wunderground PWS Mod,2013-03-11 02:27:00,
2013-03-10 22:32:00,41.6,27.9,30.11,East,93,1.0,9.0,58,0.00,,,0.00,Wunderground PWS Mod,2013-03-11 02:32:00,
2013-03-10 22:37:00,42.2,28.0,30.10,ESE,117,1.0,9.0,57,0.00,,,0.00,Wunderground PWS Mod,2013-03-11 02:37:00,
2013-03-10 22:42:00,42.1,28.4,30.10,SW,224,1.0,6.0,58,0.00,,,0.00,Wunderground PWS Mod,2013-03-11 02:42:00,
2013-03-10 22:45:00,40.9,29.3,30.11,SW,225,0.0,8.0,63,0.00,,,0.00,Wunderground PWS Mod,2013-03-11 02:45:00,
2013-03-10 22:52:00,41.2,28.4,30.11,SSE,161,0.0,6.0,60,0.00,,,0.00,Wunderground PWS Mod,2013-03-11 02:52:00,
2013-03-10 22:57:00,41.2,28.4,30.11,ENE,73,1.0,6.0,60,0.00,,,0.00,Wunderground PWS Mod,2013-03-11 02:57:00,
2013-03-10 23:07:00,40.8,29.2,30.11,SW,232,0.0,6.0,63,0.00,,,0.00,Wunderground PWS Mod,2013-03-11 03:07:00,
2013-03-10 23:12:00,41.1,29.1,30.11,ENE,72,1.0,8.0,62,0.00,,,0.00,Wunderground PWS Mod,2013-03-11 03:12:00,
2013-03-10 23:20:00,40.5,28.5,30.11,NE,45,0.0,5.0,62,0.00,,,0.00,Wunderground PWS Mod,2013-03-11 03:20:00,
2013-03-10 23:22:00,40.6,29.0,30.12,ENE,74,0.0,8.0,63,0.00,,,0.00,Wunderground PWS Mod,2013-03-11 03:22:00,
2013-03-10 23:27:00,40.3,28.7,30.12,ENE,74,0.0,8.0,63,0.00,,,0.00,Wunderground PWS Mod,2013-03-11 03:27:00,
2013-03-10 23:32:00,40.3,29.5,30.12,ENE,74,0.0,8.0,65,0.00,,,0.00,Wunderground PWS Mod,2013-03-11 03:32:00,
2013-03-10 23:42:00,41.1,29.1,30.11,East,85,1.0,5.0,62,0.00,,,0.00,Wunderground PWS Mod,2013-03-11 03:42:00,
2013-03-10 23:45:00,40.1,29.3,30.11,East,90,1.0,7.0,65,0.00,,,0.00,Wunderground PWS Mod,2013-03-11 03:45:00,
2013-03-10 23:52:00,41.3,29.3,30.11,South,175,2.0,5.0,62,0.00,,,0.00,Wunderground PWS Mod,2013-03-11 03:52:00,
2013-03-10 23:57:00,40.9,29.3,30.11,NNE,31,1.0,5.0,63,0.00,,,0.00,Wunderground PWS Mod,2013-03-11 03:57:00,